sat.trackr.live / text

‹ back to catalog

KUIPER-00587

NORAD 69275 · 2026-118J

PAYLOAD ACTIVE UNKNOWN

§ Identity

Operator
Country
US
Launch date
2026-05-29
Launch site
AFETR
Launch vehicle
Mass (kg)
RCS (m²)

External: N2YO · Heavens-Above · Gunter

§ Orbital elements

Epoch: 2026-09-19T11:35:52.636704Z

Period
97.30 min
Inclination
51.9025°
Eccentricity
0.0000619
Mean motion
14.79932937 rev/d
Perigee alt
629.1 km
Apogee alt
630.0 km
Semi-major
7,007.7 km
B*
3.0047e-4
RAAN
338.6893°
Arg perigee
95.8249°
Mean anomaly
264.2784°
Rev number
1,819

§ Raw data

KUIPER-005871 69275U 26118J   26262.48324811  .00002070  00000+0  30047-3 0  99912 69275  51.9025 338.6893 0000619  95.8249 264.2784 14.79932937 18192

JSON: /api/v1/satellites/69275 · /tle

For live sub-satellite position, see the globe view (requires WebGL).

§ Visibility from observer

Set your observer location to see the next 7 days of passes ≥ 10°. The values pass through the URL so the page stays shareable.

No JS? Fill the form by hand. The geolocation button needs JavaScript.